| time (UTC) | temp F | wind direction | speed MPH | gust MPH | rain 1hr in | rain 24hr in | rain mn in | humidity % | barometer mb |
| 20260831092527 | 46 | 244 | 10.0 | 12.0 | 0.00 | 0.02 | 0.00 | 1 | 1013.9 |
| 20260831092027 | 45 | 241 | 8.0 | 10.0 | 0.00 | 0.02 | 0.00 | 1 | 1013.9 |
| 20260831091628 | 44 | 254 | 6.0 | 8.0 | 0.00 | 0.02 | 0.00 | 1 | 1013.9 |
| 20260831091024 | 45 | 259 | 4.0 | 7.0 | 0.00 | 0.02 | 0.00 | 1 | 1013.7 |
| 20260831090524 | 46 | 269 | 2.0 | 4.0 | 0.00 | 0.02 | 0.00 | 1 | 1013.8 |
| 20260831090130 | 45 | 321 | 1.0 | 4.0 | 0.00 | 0.02 | 0.00 | 1 | 1013.8 |
| 20260831085518 | 45 | 321 | 2.0 | 4.0 | 0.00 | 0.03 | 0.00 | 1 | 1013.8 |
| 20260831085019 | 46 | 321 | 2.0 | 10.0 | 0.00 | 0.03 | 0.00 | 1 | 1013.8 |
| 20260831084531 | 47 | 321 | 2.0 | 10.0 | 0.00 | 0.03 | 0.00 | 1 | 1013.7 |
| 20260831084017 | 47 | 333 | 0.0 | 3.0 | 0.00 | 0.03 | 0.00 | 1 | 1013.8 |
| 20260831083516 | 46 | 333 | 0.0 | 2.0 | 0.00 | 0.03 | 0.00 | 1 | 1013.8 |
| 20260831083038 | 46 | 333 | 0.0 | 3.0 | 0.00 | 0.03 | 0.00 | 1 | 1013.8 |
| 20260831082521 | 46 | 333 | 1.0 | 3.0 | 0.00 | 0.03 | 0.00 | 1 | 1013.7 |
| 20260831082016 | 47 | 333 | 1.0 | 3.0 | 0.00 | 0.03 | 0.00 | 1 | 1013.5 |
| 20260831081538 | 47 | 258 | 1.0 | 6.0 | 0.00 | 0.03 | 0.00 | 1 | 1013.4 |
| 20260831081015 | 46 | 258 | 3.0 | 6.0 | 0.00 | 0.03 | 0.00 | 1 | 1013.5 |
| 20260831080517 | 47 | 258 | 3.0 | 6.0 | 0.00 | 0.03 | 0.00 | 1 | 1013.3 |
| 20260831080037 | 48 | 258 | 3.0 | 8.0 | 0.00 | 0.03 | 0.00 | 1 | 1013.4 |
| 20260831075517 | 48 | 246 | 4.0 | 10.0 | 0.00 | 0.03 | 0.00 | 1 | 1013.3 |
| 20260831075019 | 49 | 262 | 8.0 | 12.0 | 0.00 | 0.03 | 0.00 | 1 | 1013.3 |
| 20260831074534 | 49 | 237 | 7.0 | 12.0 | 0.00 | 0.03 | 0.00 | 1 | 1013.3 |
| 20260831074019 | 48 | 217 | 7.0 | 12.0 | 0.00 | 0.03 | 0.00 | 1 | 1013.3 |
| 20260831073521 | 48 | 198 | 8.0 | 12.0 | 0.00 | 0.03 | 0.00 | 1 | 1013.4 |
| 20260831073035 | 47 | 164 | 6.0 | 12.0 | 0.00 | 0.03 | 0.00 | 1 | 1013.5 |
| 20260831072517 | 47 | 164 | 8.0 | 14.0 | 0.00 | 0.03 | 0.00 | 1 | 1013.6 |
| 20260831072016 | 45 | 174 | 5.0 | 8.0 | 0.00 | 0.03 | 0.00 | 1 | 1013.6 |
| 20260831071547 | 45 | 221 | 3.0 | 6.0 | 0.00 | 0.03 | 0.00 | 1 | 1013.4 |
| 20260831071015 | 45 | 221 | 2.0 | 4.0 | 0.00 | 0.03 | 0.00 | 1 | 1013.3 |
| 20260831070518 | 46 | 221 | 2.0 | 5.0 | 0.00 | 0.03 | 0.00 | 1 | 1013.3 |
| 20260831070035 | 47 | 221 | 3.0 | 7.0 | 0.00 | 0.03 | 0.00 | 1 | 1013.3 |
| 20260831065519 | 48 | 221 | 4.0 | 11.0 | 0.00 | 0.03 | 0.00 | 1 | 1013.3 |
| 20260831065021 | 48 | 240 | 6.0 | 12.0 | 0.00 | 0.03 | 0.00 | 1 | 1013.2 |
| 20260831064535 | 48 | 257 | 8.0 | 14.0 | 0.00 | 0.03 | 0.00 | 1 | 1013.0 |
| 20260831064019 | 49 | 270 | 9.0 | 16.0 | 0.00 | 0.03 | 0.00 | 1 | 1012.9 |
| 20260831063517 | 49 | 288 | 10.0 | 18.0 | 0.00 | 0.03 | 0.00 | 1 | 1012.7 |
| 20260831063037 | 49 | 288 | 11.0 | 19.0 | 0.00 | 0.03 | 0.00 | 1 | 1012.6 |
| 20260831062520 | 49 | 261 | 15.0 | 23.0 | 0.00 | 0.03 | 0.00 | 1 | 1012.5 |
| 20260831062018 | 49 | 246 | 15.0 | 24.0 | 0.00 | 0.03 | 0.00 | 1 | 1012.6 |
| 20260831061534 | 49 | 265 | 16.0 | 24.0 | 0.00 | 0.03 | 0.00 | 1 | 1012.6 |
| 20260831061020 | 49 | 262 | 16.0 | 23.0 | 0.00 | 0.03 | 0.00 | 1 | 1012.7 |
| 20260831060518 | 49 | 266 | 17.0 | 23.0 | 0.00 | 0.03 | 0.00 | 1 | 1012.6 |
| 20260831060041 | 49 | 258 | 16.0 | 20.0 | 0.00 | 0.03 | 0.00 | 1 | 1012.7 |
| 20260831055525 | 49 | 252 | 16.0 | 20.0 | 0.00 | 0.03 | 0.03 | 1 | 1012.8 |
| 20260831055019 | 49 | 254 | 15.0 | 19.0 | 0.00 | 0.03 | 0.03 | 1 | 1013.0 |
| 20260831054535 | 48 | 257 | 14.0 | 18.0 | 0.00 | 0.03 | 0.03 | 1 | 1013.0 |
| 20260831054018 | 48 | 267 | 13.0 | 18.0 | 0.00 | 0.03 | 0.03 | 1 | 1013.1 |
| 20260831053520 | 48 | 271 | 11.0 | 17.0 | 0.00 | 0.03 | 0.03 | 1 | 1013.1 |
| 20260831053048 | 49 | 268 | 14.0 | 18.0 | 0.00 | 0.03 | 0.03 | 1 | 1013.1 |
| 20260831052518 | 49 | 235 | 14.0 | 18.0 | 0.00 | 0.03 | 0.03 | 1 | 1013.0 |
| 20260831052018 | 48 | 249 | 14.0 | 18.0 | 0.00 | 0.03 | 0.03 | 1 | 1012.9 |
| 20260831051539 | 48 | 242 | 13.0 | 17.0 | 0.00 | 0.03 | 0.03 | 1 | 1012.9 |
| 20260831051016 | 48 | 240 | 12.0 | 17.0 | 0.00 | 0.03 | 0.03 | 1 | 1013.0 |
| 20260831050518 | 48 | 240 | 12.0 | 16.0 | 0.00 | 0.03 | 0.03 | 1 | 1012.8 |
| 20260831050041 | 49 | 246 | 13.0 | 19.0 | 0.00 | 0.03 | 0.03 | 1 | 1012.7 |
| 20260831045518 | 49 | 258 | 14.0 | 21.0 | 0.00 | 0.04 | 0.03 | 1 | 1012.6 |
| 20260831045016 | 49 | 258 | 17.0 | 21.0 | 0.00 | 0.04 | 0.03 | 1 | 1012.5 |
| 20260831044536 | 49 | 258 | 15.0 | 19.0 | 0.00 | 0.04 | 0.03 | 1 | 1012.6 |
| 20260831044019 | 49 | 252 | 13.0 | 21.0 | 0.00 | 0.04 | 0.03 | 1 | 1012.4 |
| 20260831043518 | 49 | 259 | 14.0 | 21.0 | 0.00 | 0.04 | 0.03 | 1 | 1012.5 |
| 20260831043043 | 49 | 250 | 15.0 | 19.0 | 0.00 | 0.04 | 0.03 | 1 | 1012.5 |
| 20260831042518 | 49 | 257 | 15.0 | 21.0 | 0.00 | 0.04 | 0.03 | 1 | 1012.3 |
| 20260831042018 | 50 | 252 | 16.0 | 23.0 | 0.00 | 0.04 | 0.03 | 1 | 1012.4 |
| 20260831041541 | 50 | 257 | 17.0 | 24.0 | 0.00 | 0.04 | 0.03 | 1 | 1012.1 |
| 20260831041021 | 50 | 253 | 17.0 | 24.0 | 0.00 | 0.04 | 0.03 | 1 | 1012.1 |
| 20260831040518 | 50 | 259 | 19.0 | 24.0 | 0.00 | 0.04 | 0.03 | 1 | 1012.1 |
| 20260831040042 | 51 | 256 | 16.0 | 24.0 | 0.00 | 0.04 | 0.03 | 1 | 1012.1 |
| 20260831035517 | 51 | 261 | 17.0 | 25.0 | 0.00 | 0.04 | 0.03 | 1 | 1012.2 |
| 20260831035019 | 51 | 259 | 17.0 | 29.0 | 0.00 | 0.04 | 0.03 | 1 | 1012.2 |
| 20260831034540 | 52 | 291 | 19.0 | 29.0 | 0.00 | 0.04 | 0.03 | 1 | 1012.2 |
| 20260831034019 | 52 | 266 | 15.0 | 26.0 | 0.00 | 0.04 | 0.03 | 1 | 1012.4 |
| 20260831033516 | 52 | 280 | 16.0 | 25.0 | 0.00 | 0.04 | 0.03 | 1 | 1012.7 |
| 20260831033050 | 52 | 271 | 14.0 | 21.0 | 0.00 | 0.04 | 0.03 | 1 | 1012.7 |
| 20260831032518 | 51 | 261 | 14.0 | 21.0 | 0.00 | 0.04 | 0.03 | 1 | 1012.6 |
| 20260831032020 | 51 | 281 | 13.0 | 19.0 | 0.00 | 0.04 | 0.03 | 1 | 1012.7 |
| 20260831031543 | 51 | 264 | 10.0 | 14.0 | 0.00 | 0.04 | 0.03 | 1 | 1012.7 |
| 20260831031020 | 51 | 292 | 9.0 | 12.0 | 0.00 | 0.04 | 0.03 | 1 | 1012.6 |
| 20260831030517 | 51 | 277 | 9.0 | 12.0 | 0.00 | 0.04 | 0.03 | 1 | 1012.4 |
| 20260831030041 | 51 | 265 | 8.0 | 10.0 | 0.00 | 0.04 | 0.03 | 1 | 1012.4 |
| 20260831025517 | 52 | 264 | 8.0 | 12.0 | 0.00 | 0.04 | 0.03 | 1 | 1012.4 |
| 20260831025017 | 52 | 264 | 8.0 | 14.0 | 0.00 | 0.04 | 0.03 | 1 | 1012.3 |
| 20260831024551 | 52 | 269 | 10.0 | 15.0 | 0.00 | 0.04 | 0.03 | 1 | 1012.2 |
| 20260831024021 | 52 | 271 | 11.0 | 16.0 | 0.00 | 0.04 | 0.03 | 1 | 1012.1 |
| 20260831023519 | 52 | 265 | 13.0 | 20.0 | 0.00 | 0.04 | 0.03 | 1 | 1012.0 |
| 20260831023044 | 52 | 287 | 14.0 | 20.0 | 0.00 | 0.04 | 0.03 | 1 | 1012.1 |
| 20260831022516 | 52 | 267 | 13.0 | 21.0 | 0.00 | 0.04 | 0.03 | 1 | 1012.0 |
| 20260831022016 | 52 | 281 | 14.0 | 20.0 | 0.00 | 0.04 | 0.03 | 1 | 1012.0 |
| 20260831021542 | 52 | 280 | 13.0 | 17.0 | 0.00 | 0.04 | 0.03 | 1 | 1011.8 |
| 20260831021018 | 52 | 275 | 11.0 | 16.0 | 0.00 | 0.04 | 0.03 | 1 | 1011.8 |
| 20260831020520 | 52 | 281 | 10.0 | 17.0 | 0.00 | 0.04 | 0.03 | 1 | 1011.8 |
| 20260831020110 | 53 | 294 | 13.0 | 17.0 | 0.00 | 0.04 | 0.03 | 1 | 1011.8 |
| 20260831015517 | 53 | 264 | 12.0 | 16.0 | 0.00 | 0.04 | 0.03 | 1 | 1011.7 |
| 20260831015017 | 53 | 273 | 11.0 | 15.0 | 0.00 | 0.04 | 0.03 | 1 | 1011.7 |
| 20260831014546 | 53 | 278 | 9.0 | 14.0 | 0.00 | 0.04 | 0.03 | 1 | 1011.4 |
| 20260831014019 | 53 | 290 | 9.0 | 16.0 | 0.00 | 0.04 | 0.03 | 1 | 1011.5 |
| 20260831013519 | 53 | 280 | 11.0 | 16.0 | 0.01 | 0.04 | 0.03 | 1 | 1011.5 |
| 20260831013042 | 53 | 279 | 12.0 | 17.0 | 0.01 | 0.04 | 0.03 | 1 | 1011.4 |
| 20260831012519 | 53 | 290 | 13.0 | 34.0 | 0.01 | 0.04 | 0.03 | 1 | 1011.4 |
| 20260831012015 | 55 | 292 | 24.0 | 34.0 | 0.01 | 0.04 | 0.03 | 1 | 1011.4 |
| 20260831011558 | 53 | 254 | 13.0 | 17.0 | 0.01 | 0.04 | 0.03 | 1 | 1011.4 |
| 20260831011018 | 53 | 251 | 8.0 | 11.0 | 0.01 | 0.04 | 0.03 | 1 | 1011.4 |
| 20260831010518 | 53 | 236 | 7.0 | 10.0 | 0.01 | 0.04 | 0.03 | 1 | 1011.4 |
| 20260831010046 | 52 | 243 | 6.0 | 11.0 | 0.01 | 0.04 | 0.03 | 1 | 1011.3 |
| 20260831005519 | 52 | 238 | 8.0 | 12.0 | 0.01 | 0.09 | 0.03 | 1 | 1011.5 |
| 20260831005016 | 52 | 254 | 9.0 | 14.0 | 0.01 | 0.09 | 0.03 | 1 | 1011.6 |
| 20260831004548 | 52 | 261 | 10.0 | 20.0 | 0.01 | 0.09 | 0.03 | 1 | 1011.6 |
| 20260831004015 | 52 | 259 | 15.0 | 23.0 | 0.01 | 0.09 | 0.03 | 1 | 1011.7 |
| 20260831003516 | 52 | 260 | 15.0 | 23.0 | 0.00 | 0.08 | 0.02 | 1 | 1011.9 |
| 20260831003051 | 53 | 254 | 12.0 | 16.0 | 0.01 | 0.08 | 0.02 | 1 | 1011.8 |
| 20260831002520 | 53 | 277 | 9.0 | 13.0 | 0.01 | 0.08 | 0.02 | 1 | 1011.8 |
| 20260831002022 | 53 | 302 | 8.0 | 14.0 | 0.01 | 0.08 | 0.02 | 1 | 1011.6 |
| 20260831001549 | 53 | 300 | 9.0 | 14.0 | 0.01 | 0.08 | 0.02 | 1 | 1011.6 |
| 20260831001019 | 53 | 286 | 9.0 | 16.0 | 0.01 | 0.08 | 0.02 | 1 | 1011.6 |
| 20260831000517 | 53 | 274 | 12.0 | 23.0 | 0.01 | 0.08 | 0.02 | 1 | 1011.8 |
| 20260831000056 | 53 | 275 | 12.0 | 24.0 | 0.01 | 0.08 | 0.02 | 1 | 1011.8 |
| 20260830235517 | 54 | 267 | 17.0 | 26.0 | 0.01 | 0.08 | 0.02 | 1 | 1011.7 |
| 20260830235021 | 53 | 263 | 19.0 | 26.0 | 0.01 | 0.08 | 0.02 | 1 | 1011.7 |
| 20260830234546 | 52 | 256 | 16.0 | 22.0 | 0.01 | 0.08 | 0.02 | 1 | 1011.7 |
| 20260830234016 | 52 | 258 | 14.0 | 29.0 | 0.01 | 0.08 | 0.02 | 1 | 1011.8 |
| 20260830233520 | 52 | 250 | 19.0 | 39.0 | 0.00 | 0.07 | 0.01 | 1 | 1011.8 |
| 20260830233049 | 54 | 251 | 30.0 | 41.0 | 0.00 | 0.07 | 0.01 | 1 | 1011.8 |
| 20260830232515 | 55 | 241 | 30.0 | 39.0 | 0.00 | 0.07 | 0.01 | 1 | 1011.3 |
| 20260830232020 | 56 | 235 | 26.0 | 37.0 | 0.00 | 0.07 | 0.01 | 1 | 1011.9 |
| 20260830231549 | 57 | 244 | 26.0 | 37.0 | 0.00 | 0.07 | 0.01 | 1 | 1011.7 |
| 20260830231017 | 59 | 252 | 22.0 | 38.0 | 0.00 | 0.07 | 0.01 | 1 | 1011.4 |
| 20260830230518 | 60 | 247 | 29.0 | 36.0 | 0.00 | 0.07 | 0.01 | 1 | 1011.1 |
| 20260830230045 | 60 | 236 | 29.0 | 35.0 | 0.00 | 0.07 | 0.01 | 1 | 1011.0 |
| 20260830225516 | 60 | 234 | 27.0 | 36.0 | 0.00 | 0.07 | 0.01 | 1 | 1010.9 |
| 20260830225016 | 62 | 223 | 23.0 | 34.0 | 0.00 | 0.07 | 0.01 | 1 | 1011.2 |
| 20260830224546 | 62 | 238 | 28.0 | 34.0 | 0.00 | 0.07 | 0.01 | 1 | 1010.8 |
| 20260830224016 | 62 | 240 | 24.0 | 32.0 | 0.00 | 0.07 | 0.01 | 1 | 1011.1 |
| 20260830223518 | 61 | 254 | 24.0 | 31.0 | 0.00 | 0.07 | 0.01 | 1 | 1010.9 |
| 20260830223053 | 60 | 222 | 21.0 | 29.0 | 0.00 | 0.07 | 0.01 | 1 | 1011.2 |
| 20260830222518 | 61 | 227 | 19.0 | 32.0 | 0.00 | 0.07 | 0.01 | 1 | 1011.4 |
| 20260830222017 | 61 | 250 | 27.0 | 32.0 | 0.00 | 0.07 | 0.01 | 1 | 1011.2 |
| 20260830221549 | 60 | 223 | 20.0 | 32.0 | 0.00 | 0.07 | 0.01 | 1 | 1011.3 |
| 20260830221017 | 60 | 244 | 25.0 | 32.0 | 0.00 | 0.07 | 0.01 | 1 | 1011.4 |
| 20260830220516 | 60 | 225 | 22.0 | 30.0 | 0.00 | 0.07 | 0.01 | 1 | 1011.5 |
| 20260830220108 | 60 | 222 | 20.0 | 30.0 | 0.00 | 0.07 | 0.01 | 1 | 1011.5 |
| 20260830215518 | 60 | 232 | 22.0 | 30.0 | 0.00 | 0.07 | 0.01 | 1 | 1011.5 |
| 20260830215020 | 60 | 230 | 20.0 | 31.0 | 0.00 | 0.07 | 0.01 | 1 | 1011.4 |
| 20260830214550 | 60 | 233 | 22.0 | 32.0 | 0.00 | 0.07 | 0.01 | 1 | 1011.4 |
| 20260830214016 | 61 | 235 | 23.0 | 32.0 | 0.00 | 0.07 | 0.01 | 1 | 1011.3 |
| 20260830213518 | 60 | 240 | 22.0 | 35.0 | 0.00 | 0.07 | 0.01 | 1 | 1011.6 |
| 20260830213049 | 60 | 243 | 26.0 | 35.0 | 0.00 | 0.07 | 0.01 | 1 | 1011.6 |
| 20260830212516 | 60 | 224 | 24.0 | 32.0 | 0.00 | 0.07 | 0.01 | 1 | 1011.8 |
| 20260830212016 | 60 | 230 | 24.0 | 36.0 | 0.00 | 0.07 | 0.01 | 1 | 1011.7 |
| 20260830211556 | 61 | 219 | 24.0 | 36.0 | 0.00 | 0.07 | 0.01 | 1 | 1011.7 |
| 20260830211019 | 60 | 213 | 27.0 | 35.0 | 0.00 | 0.07 | 0.01 | 1 | 1011.7 |
| 20260830210520 | 61 | 248 | 26.0 | 37.0 | 0.00 | 0.07 | 0.01 | 1 | 1011.6 |
| 20260830210058 | 61 | 231 | 26.0 | 37.0 | 0.00 | 0.07 | 0.01 | 1 | 1011.8 |
| 20260830205522 | 61 | 230 | 27.0 | 35.0 | 0.00 | 0.07 | 0.01 | 1 | 1012.1 |
| 20260830205018 | 61 | 219 | 28.0 | 35.0 | 0.00 | 0.07 | 0.01 | 1 | 1011.8 |
| 20260830204552 | 61 | 239 | 23.0 | 33.0 | 0.00 | 0.07 | 0.01 | 1 | 1012.0 |
| 20260830204018 | 62 | 250 | 23.0 | 35.0 | 0.00 | 0.07 | 0.01 | 1 | 1011.7 |
| 20260830203518 | 61 | 232 | 28.0 | 35.0 | 0.00 | 0.07 | 0.01 | 1 | 1011.7 |
| 20260830203058 | 61 | 236 | 27.0 | 35.0 | 0.00 | 0.07 | 0.01 | 1 | 1011.7 |
| 20260830202516 | 61 | 245 | 27.0 | 35.0 | 0.00 | 0.07 | 0.01 | 1 | 1011.7 |
| 20260830202019 | 61 | 251 | 21.0 | 30.0 | 0.00 | 0.07 | 0.01 | 1 | 1011.7 |
| 20260830201554 | 61 | 223 | 19.0 | 32.0 | 0.00 | 0.07 | 0.01 | 1 | 1011.5 |
| 20260830201020 | 60 | 229 | 25.0 | 34.0 | 0.00 | 0.07 | 0.01 | 1 | 1011.7 |
| 20260830200518 | 61 | 237 | 24.0 | 34.0 | 0.00 | 0.07 | 0.01 | 1 | 1011.7 |
| 20260830200047 | 60 | 224 | 25.0 | 33.0 | 0.00 | 0.07 | 0.01 | 1 | 1011.7 |
| 20260830195519 | 60 | 227 | 24.0 | 32.0 | 0.00 | 0.07 | 0.01 | 1 | 1011.8 |
| 20260830195017 | 60 | 261 | 22.0 | 34.0 | 0.00 | 0.07 | 0.01 | 1 | 1012.0 |
| 20260830194547 | 59 | 248 | 22.0 | 34.0 | 0.00 | 0.07 | 0.01 | 1 | 1012.0 |
| 20260830194017 | 58 | 224 | 27.0 | 34.0 | 0.00 | 0.07 | 0.01 | 1 | 1011.9 |
| 20260830193517 | 59 | 215 | 24.0 | 33.0 | 0.00 | 0.07 | 0.01 | 1 | 1012.0 |
| 20260830193054 | 59 | 228 | 24.0 | 33.0 | 0.00 | 0.07 | 0.01 | 1 | 1011.9 |
| 20260830192519 | 60 | 252 | 24.0 | 34.0 | 0.00 | 0.07 | 0.01 | 1 | 1011.8 |
| 20260830192016 | 61 | 240 | 27.0 | 34.0 | 0.00 | 0.07 | 0.01 | 1 | 1011.7 |
| 20260830191553 | 60 | 240 | 25.0 | 31.0 | 0.00 | 0.07 | 0.01 | 1 | 1011.8 |
| 20260830191021 | 61 | 228 | 21.0 | 27.0 | 0.00 | 0.07 | 0.01 | 1 | 1011.6 |
| 20260830190521 | 60 | 230 | 23.0 | 28.0 | 0.00 | 0.07 | 0.01 | 1 | 1011.7 |
| 20260830190100 | 59 | 227 | 21.0 | 31.0 | 0.00 | 0.07 | 0.01 | 1 | 1011.9 |
| 20260830185518 | 60 | 234 | 21.0 | 29.0 | 0.00 | 0.07 | 0.01 | 1 | 1011.9 |
| 20260830185019 | 60 | 241 | 20.0 | 30.0 | 0.00 | 0.07 | 0.01 | 1 | 1011.7 |
| 20260830184607 | 61 | 227 | 21.0 | 29.0 | 0.00 | 0.07 | 0.01 | 1 | 1011.5 |
| 20260830184017 | 60 | 230 | 22.0 | 30.0 | 0.00 | 0.07 | 0.01 | 1 | 1011.7 |
| 20260830183522 | 61 | 248 | 23.0 | 30.0 | 0.00 | 0.07 | 0.01 | 1 | 1011.8 |
| 20260830183054 | 62 | 234 | 20.0 | 34.0 | 0.00 | 0.07 | 0.01 | 1 | 1011.8 |
| 20260830182522 | 61 | 204 | 20.0 | 34.0 | 0.00 | 0.07 | 0.01 | 1 | 1011.6 |
| 20260830182022 | 60 | 232 | 23.0 | 32.0 | 0.00 | 0.07 | 0.01 | 1 | 1011.6 |
| 20260830181551 | 61 | 230 | 25.0 | 32.0 | 0.00 | 0.07 | 0.01 | 1 | 1011.8 |
| 20260830181021 | 61 | 210 | 19.0 | 30.0 | 0.00 | 0.07 | 0.01 | 1 | 1011.9 |
| 20260830180522 | 61 | 229 | 23.0 | 31.0 | 0.00 | 0.07 | 0.01 | 1 | 1011.8 |
| 20260830180059 | 61 | 229 | 23.0 | 30.0 | 0.00 | 0.07 | 0.01 | 1 | 1011.5 |
| 20260830175517 | 61 | 196 | 18.0 | 31.0 | 0.00 | 0.07 | 0.01 | 1 | 1011.7 |
| 20260830175023 | 60 | 243 | 21.0 | 30.0 | 0.00 | 0.07 | 0.01 | 1 | 1011.8 |
| 20260830174559 | 60 | 223 | 24.0 | 28.0 | 0.00 | 0.07 | 0.01 | 1 | 1011.5 |
| 20260830174022 | 61 | 229 | 20.0 | 27.0 | 0.00 | 0.07 | 0.01 | 1 | 1011.8 |
| 20260830173520 | 60 | 244 | 19.0 | 25.0 | 0.00 | 0.07 | 0.01 | 1 | 1011.7 |
| 20260830173052 | 60 | 219 | 18.0 | 26.0 | 0.00 | 0.07 | 0.01 | 1 | 1011.7 |
| 20260830172518 | 59 | 259 | 19.0 | 26.0 | 0.00 | 0.07 | 0.01 | 1 | 1011.9 |
| 20260830172019 | 60 | 252 | 19.0 | 25.0 | 0.00 | 0.07 | 0.01 | 1 | 1012.1 |
| 20260830171603 | 60 | 248 | 19.0 | 25.0 | 0.00 | 0.07 | 0.01 | 1 | 1011.9 |
| 20260830171022 | 60 | 238 | 18.0 | 25.0 | 0.00 | 0.07 | 0.01 | 1 | 1012.1 |
| 20260830170519 | 59 | 217 | 16.0 | 24.0 | 0.00 | 0.07 | 0.01 | 1 | 1012.3 |
| 20260830170057 | 60 | 216 | 16.0 | 25.0 | 0.00 | 0.07 | 0.01 | 1 | 1012.4 |
| 20260830165524 | 59 | 250 | 18.0 | 26.0 | 0.00 | 0.07 | 0.01 | 1 | 1012.4 |
| 20260830165020 | 59 | 225 | 20.0 | 26.0 | 0.00 | 0.07 | 0.01 | 1 | 1012.2 |
| 20260830164549 | 59 | 239 | 16.0 | 23.0 | 0.00 | 0.07 | 0.01 | 1 | 1012.4 |
| 20260830164023 | 58 | 230 | 16.0 | 23.0 | 0.00 | 0.07 | 0.01 | 1 | 1012.4 |
| 20260830163519 | 58 | 238 | 15.0 | 23.0 | 0.00 | 0.07 | 0.01 | 1 | 1012.4 |
| 20260830163058 | 58 | 226 | 14.0 | 19.0 | 0.00 | 0.07 | 0.01 | 1 | 1012.4 |
| 20260830162520 | 58 | 225 | 14.0 | 18.0 | 0.00 | 0.07 | 0.01 | 1 | 1012.3 |
| 20260830162016 | 57 | 236 | 13.0 | 17.0 | 0.00 | 0.07 | 0.01 | 1 | 1012.3 |
| 20260830161606 | 57 | 213 | 14.0 | 16.0 | 0.00 | 0.07 | 0.01 | 1 | 1012.2 |
| 20260830161021 | 57 | 230 | 12.0 | 16.0 | 0.00 | 0.07 | 0.01 | 1 | 1012.4 |
| 20260830160520 | 57 | 227 | 11.0 | 17.0 | 0.00 | 0.07 | 0.01 | 1 | 1012.5 |
| 20260830155520 | 56 | 234 | 12.0 | 15.0 | 0.00 | 0.07 | 0.01 | 1 | 1012.8 |
| 20260830155021 | 56 | 245 | 10.0 | 14.0 | 0.00 | 0.07 | 0.01 | 1 | 1012.7 |
| 20260830154557 | 56 | 245 | 11.0 | 17.0 | 0.00 | 0.07 | 0.01 | 1 | 1012.5 |
| 20260830154016 | 55 | 263 | 11.0 | 16.0 | 0.00 | 0.07 | 0.01 | 1 | 1012.7 |
| 20260830153520 | 55 | 262 | 12.0 | 16.0 | 0.00 | 0.07 | 0.01 | 1 | 1012.8 |
| 20260830153103 | 55 | 261 | 11.0 | 16.0 | 0.00 | 0.07 | 0.01 | 1 | 1012.6 |
| 20260830152519 | 54 | 267 | 11.0 | 15.0 | 0.00 | 0.07 | 0.01 | 1 | 1012.7 |
| 20260830152021 | 54 | 281 | 10.0 | 14.0 | 0.00 | 0.07 | 0.01 | 1 | 1012.6 |
| 20260830151553 | 54 | 265 | 10.0 | 14.0 | 0.00 | 0.07 | 0.01 | 1 | 1012.7 |
| 20260830151020 | 54 | 257 | 8.0 | 12.0 | 0.00 | 0.07 | 0.01 | 1 | 1012.8 |
| 20260830150526 | 53 | 273 | 8.0 | 12.0 | 0.00 | 0.07 | 0.01 | 1 | 1012.9 |
| 20260830145521 | 52 | 263 | 8.0 | 10.0 | 0.00 | 0.07 | 0.01 | 1 | 1012.8 |
| 20260830145020 | 51 | 275 | 5.0 | 10.0 | 0.00 | 0.07 | 0.01 | 1 | 1013.0 |
| 20260830144619 | 49 | 317 | 4.0 | 8.0 | 0.00 | 0.07 | 0.01 | 1 | 1013.0 |
| 20260830144019 | 48 | 311 | 4.0 | 8.0 | 0.00 | 0.07 | 0.01 | 1 | 1013.0 |
| 20260830143523 | 47 | 307 | 4.0 | 7.0 | 0.00 | 0.07 | 0.01 | 1 | 1013.1 |
| 20260830143107 | 47 | 302 | 3.0 | 9.0 | 0.00 | 0.07 | 0.01 | 1 | 1013.0 |
| 20260830142519 | 47 | 297 | 4.0 | 9.0 | 0.00 | 0.07 | 0.01 | 1 | 1013.1 |
| 20260830142026 | 47 | 313 | 5.0 | 9.0 | 0.00 | 0.07 | 0.01 | 1 | 1013.2 |
| 20260830141601 | 46 | 298 | 5.0 | 8.0 | 0.00 | 0.07 | 0.01 | 1 | 1013.3 |
| 20260830141018 | 46 | 315 | 4.0 | 6.0 | 0.00 | 0.07 | 0.01 | 1 | 1013.2 |
| 20260830140520 | 46 | 315 | 4.0 | 6.0 | 0.00 | 0.07 | 0.01 | 1 | 1013.3 |
| 20260830140100 | 45 | 315 | 4.0 | 6.0 | 0.00 | 0.07 | 0.01 | 1 | 1013.4 |
| 20260830135518 | 45 | 315 | 3.0 | 5.0 | 0.00 | 0.07 | 0.01 | 1 | 1013.4 |
| 20260830135018 | 45 | 289 | 2.0 | 4.0 | 0.00 | 0.07 | 0.01 | 1 | 1013.4 |
| 20260830134606 | 46 | 290 | 2.0 | 3.0 | 0.00 | 0.07 | 0.01 | 1 | 1013.6 |
| 20260830134018 | 46 | 290 | 2.0 | 4.0 | 0.00 | 0.07 | 0.01 | 1 | 1013.6 |
| 20260830133520 | 46 | 289 | 1.0 | 7.0 | 0.00 | 0.07 | 0.01 | 1 | 1013.6 |
| 20260830133104 | 47 | 280 | 4.0 | 8.0 | 0.00 | 0.07 | 0.01 | 1 | 1013.5 |
| 20260830132521 | 47 | 302 | 4.0 | 8.0 | 0.00 | 0.07 | 0.01 | 1 | 1013.4 |
| 20260830132021 | 47 | 273 | 4.0 | 7.0 | 0.00 | 0.07 | 0.01 | 1 | 1013.3 |
| 20260830131603 | 47 | 284 | 4.0 | 7.0 | 0.00 | 0.07 | 0.01 | 1 | 1013.3 |
| 20260830131019 | 47 | 310 | 4.0 | 8.0 | 0.00 | 0.07 | 0.01 | 1 | 1013.3 |
| 20260830130518 | 48 | 308 | 5.0 | 8.0 | 0.00 | 0.07 | 0.01 | 1 | 1013.1 |
| 20260830130114 | 48 | 297 | 5.0 | 8.0 | 0.00 | 0.07 | 0.01 | 1 | 1013.0 |
| 20260830125521 | 48 | 290 | 4.0 | 9.0 | 0.00 | 0.07 | 0.01 | 1 | 1013.0 |
| 20260830125017 | 48 | 311 | 5.0 | 9.0 | 0.00 | 0.07 | 0.01 | 1 | 1012.9 |
| 20260830124554 | 49 | 292 | 5.0 | 12.0 | 0.00 | 0.07 | 0.01 | 1 | 1012.8 |
| 20260830124021 | 49 | 273 | 8.0 | 12.0 | 0.00 | 0.07 | 0.01 | 1 | 1012.8 |
| 20260830123523 | 49 | 275 | 7.0 | 9.0 | 0.00 | 0.07 | 0.01 | 1 | 1012.8 |
| 20260830123102 | 49 | 267 | 5.0 | 7.0 | 0.00 | 0.07 | 0.01 | 1 | 1013.0 |
| 20260830122519 | 50 | 267 | 4.0 | 7.0 | 0.00 | 0.07 | 0.01 | 1 | 1013.0 |
| 20260830122018 | 50 | 241 | 4.0 | 7.0 | 0.00 | 0.07 | 0.01 | 1 | 1013.1 |
| 20260830121558 | 50 | 241 | 4.0 | 8.0 | 0.00 | 0.07 | 0.01 | 1 | 1013.1 |
| 20260830121017 | 50 | 241 | 4.0 | 8.0 | 0.00 | 0.07 | 0.01 | 1 | 1012.8 |
| 20260830120523 | 50 | 234 | 6.0 | 8.0 | 0.00 | 0.07 | 0.01 | 1 | 1012.8 |
| 20260830120120 | 51 | 257 | 5.0 | 9.0 | 0.00 | 0.07 | 0.01 | 1 | 1012.6 |
| 20260830115518 | 51 | 246 | 6.0 | 9.0 | 0.00 | 0.07 | 0.01 | 1 | 1012.7 |
| 20260830115018 | 50 | 248 | 6.0 | 10.0 | 0.00 | 0.07 | 0.01 | 1 | 1012.8 |
| 20260830114615 | 50 | 252 | 8.0 | 10.0 | 0.00 | 0.07 | 0.01 | 1 | 1012.8 |
| 20260830114020 | 50 | 257 | 4.0 | 10.0 | 0.00 | 0.07 | 0.01 | 1 | 1012.5 |
| 20260830113523 | 51 | 283 | 5.0 | 10.0 | 0.00 | 0.07 | 0.01 | 1 | 1012.5 |
| 20260830113121 | 51 | 290 | 5.0 | 8.0 | 0.00 | 0.07 | 0.01 | 1 | 1012.7 |
| 20260830112519 | 51 | 283 | 1.0 | 8.0 | 0.00 | 0.07 | 0.01 | 1 | 1012.5 |
| 20260830112020 | 51 | 275 | 5.0 | 8.0 | 0.00 | 0.07 | 0.01 | 1 | 1012.7 |
| 20260830111556 | 51 | 271 | 2.0 | 8.0 | 0.00 | 0.07 | 0.01 | 1 | 1012.5 |
| 20260830111019 | 51 | 265 | 5.0 | 9.0 | 0.00 | 0.07 | 0.01 | 1 | 1012.8 |
| 20260830110520 | 52 | 258 | 7.0 | 9.0 | 0.00 | 0.07 | 0.01 | 1 | 1012.8 |
| 20260830110106 | 52 | 258 | 7.0 | 9.0 | 0.00 | 0.07 | 0.01 | 1 | 1013.0 |
| 20260830105520 | 52 | 256 | 7.0 | 8.0 | 0.00 | 0.07 | 0.01 | 1 | 1012.9 |
| 20260830105021 | 52 | 252 | 5.0 | 7.0 | 0.00 | 0.07 | 0.01 | 1 | 1013.0 |
| 20260830104606 | 52 | 252 | 5.0 | 9.0 | 0.00 | 0.07 | 0.01 | 1 | 1012.8 |
| 20260830104019 | 52 | 252 | 7.0 | 10.0 | 0.00 | 0.07 | 0.01 | 1 | 1012.7 |
| 20260830103523 | 52 | 245 | 7.0 | 11.0 | 0.00 | 0.07 | 0.01 | 1 | 1012.7 |
| 20260830103101 | 52 | 242 | 6.0 | 10.0 | 0.00 | 0.07 | 0.01 | 1 | 1012.8 |
| 20260830102526 | 53 | 257 | 6.0 | 9.0 | 0.00 | 0.07 | 0.01 | 1 | 1012.8 |
| 20260830102021 | 52 | 266 | 5.0 | 7.0 | 0.00 | 0.07 | 0.01 | 1 | 1012.7 |
| 20260830101608 | 52 | 266 | 3.0 | 6.0 | 0.00 | 0.07 | 0.01 | 1 | 1012.6 |
| 20260830101024 | 52 | 266 | 3.0 | 6.0 | 0.00 | 0.07 | 0.01 | 1 | 1012.4 |
| 20260830100520 | 52 | 266 | 2.0 | 4.0 | 0.00 | 0.07 | 0.01 | 1 | 1012.4 |
| 20260830100120 | 52 | 266 | 3.0 | 4.0 | 0.00 | 0.07 | 0.01 | 1 | 1012.6 |
| 20260830095521 | 51 | 266 | 0.0 | 4.0 | 0.00 | 0.07 | 0.01 | 1 | 1012.3 |
| 20260830095020 | 51 | 266 | 2.0 | 4.0 | 0.00 | 0.07 | 0.01 | 1 | 1012.2 |
| 20260830094612 | 51 | 266 | 1.0 | 3.0 | 0.00 | 0.07 | 0.01 | 1 | 1012.1 |
| 20260830094020 | 52 | 266 | 1.0 | 6.0 | 0.00 | 0.07 | 0.01 | 1 | 1012.3 |
| 20260830093520 | 52 | 266 | 3.0 | 8.0 | 0.00 | 0.07 | 0.01 | 1 | 1012.5 |
| 20260830093127 | 52 | 262 | 5.0 | 8.0 | 0.00 | 0.07 | 0.01 | 1 | 1012.6 |